sat.trackr.live / text

‹ back to catalog

ASTRA 2E

NORAD 39285 · 2013-056A

PAYLOAD ACTIVE UNKNOWN

§ Identity

Operator
Country
SES
Launch date
2013-09-29
Launch site
TYMSC
Launch vehicle
Mass (kg)
RCS (m²)
7.80

Purposes: comms

External: N2YO · Heavens-Above · Gunter

§ Orbital elements

Epoch: 2026-09-15T20:43:47.060832Z

Period
1,436.08 min
Inclination
0.0855°
Eccentricity
0.0002162
Mean motion
1.00272657 rev/d
Perigee alt
35,777.2 km
Apogee alt
35,795.5 km
Semi-major
42,164.5 km
B*
0.0000e+0
RAAN
309.2672°
Arg perigee
227.6752°
Mean anomaly
157.3137°
Rev number
4,732

§ Raw data

ASTRA 2E1 39285U 13056A   26258.86373913  .00000145  00000+0  00000+0 0  99932 39285   0.0855 309.2672 0002162 227.6752 157.3137  1.00272657 47321

JSON: /api/v1/satellites/39285 · /tle

For live sub-satellite position, see the globe view (requires WebGL).

§ Visibility from observer

Set your observer location to see the next 7 days of passes ≥ 10°. The values pass through the URL so the page stays shareable.

No JS? Fill the form by hand. The geolocation button needs JavaScript.